Theta_e
318 318 319 319 319 318 318 318 318 319 319 320 320 321 321 321 321 318 311 318 322 332 320 313 314 317 321 318 317 317 305 303 305 308 312 318 320 325 327 322 328 333 333 346 350
317 317 318 318 318 318 318 318 318 319 319 319 320 320 321 321 316 312 327 336 333 330 313 311 311 312 313 314 315 310 305 304 309 311 311 315 316 322 322 321 321 327 333 344 348
317 317 318 317 317 318 317 318 318 319 319 319 320 320 320 320 314 313 333 332 331 325 313 314 315 312 309 313 313 311 306 310 311 312 313 312 313 317 320 318 321 322 325 336 343
316 316 316 316 317 317 317 317 318 319 319 319 320 319 320 318 306 318 334 331 330 316 312 311 313 309 308 308 313 307 311 312 312 313 312 311 313 313 318 320 325 324 328 336 338
316 316 315 316 316 317 318 317 318 318 318 319 319 319 318 313 312 323 335 328 315 316 312 312 311 310 306 309 310 308 310 312 313 313 312 313 311 312 314 320 324 325 324 330 335
316 316 316 316 316 317 318 318 318 318 318 319 319 318 313 306 318 321 324 319 317 313 313 314 312 312 309 308 308 311 310 311 312 311 312 310 310 312 314 318 319 322 323 323 334
314 315 315 315 316 317 318 317 317 319 321 320 319 319 314 313 319 320 319 320 322 319 313 316 315 311 310 307 311 310 305 308 309 310 309 312 307 307 313 315 315 318 323 323 324
314 314 314 315 316 317 317 317 318 321 319 320 320 318 312 322 323 317 318 315 316 318 318 320 317 312 309 311 309 306 306 301 307 309 310 309 301 309 313 313 312 315 319 324 325
313 313 313 314 315 316 316 316 321 320 319 320 318 317 313 319 314 318 319 314 316 318 319 318 314 309 309 304 302 304 298 301 303 309 308 307 303 309 312 313 313 314 316 321 322
313 312 312 313 314 314 314 314 321 318 320 321 320 313 316 312 317 317 318 316 314 313 310 309 308 305 305 302 294 298 299 301 301 306 307 305 304 309 311 312 312 313 314 316 322
313 312 312 312 313 313 314 316 316 314 316 313 314 312 313 316 318 314 317 314 313 310 303 306 301 298 301 303 303 303 301 300 304 308 306 305 306 307 310 311 311 313 314 315 318
312 312 312 312 312 312 313 312 309 310 302 310 310 311 315 316 309 313 317 309 308 303 306 304 299 304 306 305 304 303 301 300 304 307 306 305 304 308 310 311 312 312 314 315 319
310 311 311 311 311 313 314 312 316 315 303 307 311 310 312 314 309 309 313 311 307 304 304 301 304 308 305 303 301 301 300 300 300 304 305 304 301 305 308 311 312 314 315 316 317
310 310 310 310 311 317 312 316 316 316 299 303 306 310 313 312 308 314 315 311 307 303 305 304 307 305 304 302 303 298 304 303 301 299 294 303 294 303 306 307 310 312 313 314 316
309 310 310 309 312 313 313 315 316 314 290 306 308 316 312 309 310 310 315 310 304 304 305 301 304 303 302 303 305 301 305 303 302 299 299 298 295 300 306 305 308 311 313 314 316
309 309 309 315 316 318 315 315 314 299 291 302 307 305 305 307 308 310 310 312 310 305 305 304 308 306 305 306 307 307 303 302 301 299 293 297 296 297 301 305 308 311 313 315 316
308 308 307 314 311 315 314 310 298 293 305 301 301 303 302 302 304 305 303 304 301 297 298 302 303 306 307 303 306 304 300 292 290 291 290 299 296 299 306 307 309 312 315 318 319
306 306 314 313 318 314 312 303 292 299 302 304 301 300 298 300 300 301 300 298 302 301 297 294 293 303 307 304 301 301 300 294 286 288 291 299 294 299 309 310 312 314 316 318 319
304 315 317 319 314 314 305 295 296 301 300 298 299 296 296 299 298 299 298 297 300 299 293 293 294 302 304 306 306 301 297 303 296 297 293 297 300 305 308 309 311 312 314 317 318
305 311 314 316 315 310 301 296 300 300 298 298 292 295 292 295 295 296 295 298 297 298 300 296 289 297 300 302 305 302 304 295 297 288 287 293 296 298 304 308 309 311 313 316 317
308 307 313 314 313 305 298 299 299 300 298 294 293 292 293 293 294 293 293 296 297 296 298 295 292 291 296 294 294 296 295 298 298 296 289 288 293 304 307 310 309 307 312 315 316
308 303 313 312 301 304 298 296 296 297 299 296 295 294 292 293 292 292 291 294 297 296 291 295 292 287 290 295 297 296 295 296 291 290 294 294 294 307 308 309 308 309 309 310 315
304 306 312 310 296 297 299 296 297 295 295 294 293 295 295 292 289 292 293 297 296 294 292 294 289 284 285 291 295 292 295 296 296 297 291 287 292 307 308 305 307 306 305 306 309
305 299 305 306 303 297 294 294 293 298 295 295 294 296 293 291 294 291 292 296 296 295 297 294 289 285 281 285 290 288 290 292 292 288 289 290 293 302 305 305 305 302 302 305 305
306 302 302 296 298 297 297 295 292 291 297 297 294 293 292 289 291 291 294 295 297 298 294 293 287 289 289 290 290 289 289 289 288 289 286 290 291 296 299 302 304 303 303 303 302
301 299 301 298 300 297 295 294 292 293 293 291 292 294 295 291 293 291 293 293 293 296 295 296 287 290 287 290 290 287 290 290 289 289 289 289 289 296 299 302 302 303 302 300 301
306 306 301 298 297 294 293 293 293 293 294 295 295 294 292 295 298 298 298 298 296 294 293 293 290 287 282 288 288 284 288 289 290 291 291 287 291 296 296 298 300 300 300 300 301
Wind_Speed
21 21 20 19 18 17 17 17 16 14 13 13 13 13 12 12 12 10 12 7 5 8 2 11 12 15 18 17 19 19 16 17 24 26 24 19 5 16 15 9 3 6 10 20 15
21 21 20 20 19 16 16 15 15 14 14 13 13 12 11 10 13 19 12 10 11 9 9 14 14 15 14 18 17 18 16 24 24 22 24 26 13 19 19 8 13 6 15 17 15
22 21 21 21 20 17 16 15 14 14 13 12 12 10 9 9 11 9 9 8 8 8 14 16 16 15 19 17 20 21 19 22 20 24 24 26 26 13 13 10 12 11 13 12 14
22 23 22 22 21 18 17 16 14 13 13 12 11 9 7 9 6 8 10 9 6 8 12 15 17 17 18 19 20 22 24 21 23 25 25 24 22 16 15 9 18 8 9 14 9
22 23 23 22 21 19 17 15 14 12 12 12 9 6 6 9 13 10 11 9 9 10 14 16 16 16 20 19 20 23 21 22 22 21 22 24 21 17 18 19 23 12 6 9 10
22 23 22 22 20 18 16 13 11 11 10 9 7 4 7 16 9 14 13 11 11 12 13 15 13 14 18 19 20 20 21 22 20 23 22 19 20 19 19 20 20 13 18 9 17
23 23 23 22 21 19 16 14 11 10 9 7 7 7 13 19 2 7 10 12 14 13 13 13 13 16 14 18 18 19 22 21 21 19 20 21 21 24 22 22 22 19 14 15 12
24 24 23 23 21 19 17 14 11 7 3 6 8 9 10 4 8 11 12 13 11 11 14 13 12 15 20 16 19 21 17 19 20 23 20 19 22 22 22 21 24 23 19 18 18
26 26 25 24 23 20 16 14 10 4 2 7 7 9 12 5 9 14 11 14 11 10 9 9 13 15 14 17 17 15 18 21 22 22 21 24 26 22 22 22 22 20 21 18 17
27 27 26 25 25 21 19 9 4 3 7 9 12 9 10 14 11 7 6 13 8 11 11 10 8 12 13 14 15 17 20 22 20 20 22 25 25 24 19 20 20 19 21 21 20
27 28 27 26 25 21 14 6 6 7 12 16 6 13 17 6 4 10 12 11 14 12 14 15 12 15 19 19 19 20 20 23 21 19 17 20 18 17 15 23 22 18 17 18 20
29 29 28 27 25 22 9 8 5 8 13 18 23 21 14 7 10 15 12 14 16 16 17 14 16 18 17 18 18 19 21 20 20 22 21 19 19 17 16 19 19 19 17 14 10
28 30 30 29 26 12 13 3 8 9 9 17 21 16 16 12 16 11 14 17 15 18 18 19 19 19 18 16 18 18 18 19 19 19 21 21 22 20 20 21 20 21 16 14 15
27 29 28 30 6 10 7 6 10 5 8 17 11 9 8 9 14 5 12 15 18 21 20 20 20 22 19 16 16 17 18 19 19 16 16 17 16 19 20 23 23 22 20 18 17
27 28 27 12 12 7 8 10 9 4 8 10 12 7 8 14 9 11 8 9 18 21 19 21 23 23 22 22 21 20 17 18 19 18 18 21 16 17 18 19 22 23 24 22 19
30 28 24 8 9 14 12 9 5 8 13 7 6 9 14 14 12 8 10 13 15 19 19 24 25 25 22 22 19 19 20 19 18 16 17 19 18 17 18 19 21 17 17 22 10
34 33 18 10 7 13 10 7 8 9 1 6 4 3 10 12 10 9 11 14 13 17 18 22 25 24 24 25 21 18 14 12 15 15 17 20 22 17 20 21 20 2 11 13 10
36 35 8 9 11 11 8 9 12 13 14 7 1 3 10 14 13 12 7 13 17 18 11 17 20 18 11 15 22 23 19 14 20 16 19 21 19 18 20 21 17 7 10 7 5
33 8 8 9 8 6 8 10 15 12 14 11 11 12 13 12 4 12 9 12 6 12 8 10 15 23 23 19 10 16 16 18 21 20 17 19 25 22 14 3 9 12 13 11 4
12 10 3 9 9 5 8 17 15 13 12 11 9 9 12 13 11 4 8 6 5 8 6 8 18 14 19 23 14 10 13 14 13 19 18 22 20 16 17 10 14 7 9 9 2
6 8 9 15 10 7 11 3 7 11 9 8 7 8 9 12 11 8 6 6 6 7 10 11 9 14 19 15 17 15 13 17 14 16 13 15 11 15 21 16 14 20 22 11 9
8 8 9 13 9 8 3 6 3 9 9 5 4 6 9 9 8 6 9 6 7 7 8 10 7 15 19 24 24 23 14 16 10 12 16 17 11 10 13 17 23 14 13 22 16
10 11 7 10 6 9 10 12 9 7 9 7 6 6 3 3 5 9 11 9 5 3 7 7 5 12 13 14 16 13 14 16 17 15 19 7 10 8 10 6 13 15 17 21 16
8 6 8 2 4 9 11 8 7 8 5 3 9 12 8 10 9 8 9 6 9 2 9 2 6 13 13 17 20 15 14 12 15 11 18 19 20 9 10 11 9 12 21 22 20
6 5 5 7 9 11 11 12 11 8 2 8 5 10 8 6 11 12 7 6 5 12 4 6 10 13 16 19 20 18 18 18 15 18 16 19 24 19 3 10 9 13 13 13 19
6 7 10 11 8 7 11 8 0 6 8 9 11 9 6 7 10 13 14 4 6 5 7 7 5 15 14 20 20 19 21 26 20 20 22 22 22 20 20 7 7 12 16 13 6
7 7 6 8 10 5 4 7 9 10 10 8 9 10 7 9 11 14 14 13 14 13 11 9 12 11 15 17 17 17 16 18 20 18 18 20 20 19 19 16 9 10 7 5 6
Wind_Direction
345 341 337 333 329 326 322 319 316 313 308 306 305 304 305 306 295 243 251 235 155 137 199 271 221 240 247 244 244 241 249 253 252 262 273 272 125 286 275 248 173 142 83 102 119
344 339 335 332 328 324 320 315 311 306 303 299 296 299 305 316 280 267 247 145 139 153 245 229 223 227 236 236 240 230 242 245 257 265 265 275 269 201 276 211 265 157 112 124 143
343 340 337 333 328 324 318 313 308 303 298 293 290 293 304 296 275 212 115 146 154 188 238 241 241 223 236 236 232 242 239 256 257 260 279 279 282 314 267 266 233 221 188 129 146
342 340 338 334 329 324 317 311 302 299 294 287 285 292 301 256 304 112 145 149 164 223 228 243 244 237 234 240 243 245 243 244 261 278 286 283 291 282 283 270 285 83 109 136 159
340 339 338 333 331 325 316 311 305 299 290 281 274 282 258 234 251 135 143 149 181 200 215 231 242 229 243 242 252 252 250 256 252 264 273 281 289 293 268 275 283 305 162 153 164
340 339 336 333 330 326 317 309 303 297 281 266 250 224 248 260 110 154 197 170 226 207 227 241 243 254 255 253 250 259 259 260 257 261 261 275 273 276 270 269 271 277 287 229 175
339 338 337 334 331 326 321 314 310 301 286 228 213 234 265 250 202 179 211 209 202 219 231 241 249 258 254 264 261 257 270 272 267 255 262 266 255 252 259 269 270 262 244 277 276
338 338 336 333 329 325 323 320 313 316 296 185 188 226 266 308 260 215 209 228 236 244 245 250 250 248 256 277 266 260 264 265 255 259 244 239 258 251 246 249 251 254 242 232 254
337 337 335 333 327 321 321 314 298 299 243 174 201 229 262 119 224 235 233 226 207 230 231 241 247 239 238 246 251 248 253 248 256 253 256 238 240 244 251 259 241 240 253 214 235
336 334 332 330 325 322 319 282 318 246 217 210 263 248 245 240 198 230 235 231 197 213 213 217 224 232 228 238 233 240 243 243 247 261 256 237 246 234 238 253 254 249 224 242 206
334 331 330 329 323 321 326 249 219 197 229 246 242 233 292 238 220 231 233 219 217 214 217 202 220 217 228 227 249 269 276 278 286 284 246 262 267 243 255 266 248 262 241 231 228
333 330 329 327 320 313 280 282 14 296 292 262 255 255 263 277 271 218 191 215 211 223 220 223 223 239 238 240 244 256 257 262 275 285 292 287 280 249 248 276 269 243 257 257 225
332 329 329 325 317 285 246 3 311 302 265 280 241 232 235 210 244 224 189 218 226 229 235 232 242 216 231 247 255 248 261 273 274 277 273 267 265 272 264 250 266 275 267 258 259
330 327 327 328 290 308 282 359 316 10 272 247 179 220 202 220 246 288 177 246 234 252 239 244 252 256 261 248 236 255 261 251 262 264 265 267 257 247 242 242 244 248 251 245 243
328 326 325 324 310 284 1 323 337 248 281 128 164 103 213 214 104 210 223 256 255 265 248 253 256 250 254 245 253 268 248 265 274 261 260 251 265 269 264 252 237 229 229 237 233
327 323 329 279 210 272 328 319 263 235 243 156 142 204 217 219 248 162 188 220 271 272 257 269 277 276 271 270 258 244 263 263 257 264 253 258 247 259 265 267 270 268 237 219 238
324 318 313 303 292 333 317 267 243 242 265 167 193 100 288 290 210 214 267 263 237 250 248 251 252 256 258 266 265 261 258 246 245 240 250 245 249 264 258 263 269 283 45 53 53
325 311 239 228 286 329 295 251 252 275 304 69 213 279 275 292 273 309 241 282 269 311 278 286 278 271 321 286 266 234 234 254 255 251 261 258 249 246 245 244 248 116 93 72 30
319 306 243 201 320 325 277 247 248 290 14 351 327 283 295 259 196 296 274 275 38 29 347 323 290 326 325 330 274 281 276 272 280 285 288 288 284 286 276 343 187 191 140 113 81
315 288 331 354 310 276 258 257 293 40 1 352 332 332 325 322 332 295 311 59 35 68 13 319 306 305 320 325 297 290 291 298 286 275 252 243 272 289 4 313 218 230 135 97 201
257 284 46 339 296 248 246 10 350 10 28 10 357 319 319 315 319 311 300 354 77 354 2 322 267 293 302 289 292 304 289 264 272 269 268 275 286 31 5 8 86 11 347 55 357
304 307 44 340 287 232 344 0 357 358 349 319 325 285 284 311 314 292 279 287 69 28 334 334 302 295 289 301 298 294 288 292 284 275 297 299 253 92 51 11 23 64 339 345 351
302 296 77 344 340 351 10 338 318 343 358 339 315 295 289 297 303 252 248 106 122 5 11 2 293 307 300 287 243 288 288 287 277 273 258 254 293 101 106 62 15 11 346 334 330
282 314 352 343 135 0 355 328 333 347 301 290 296 311 295 279 252 256 266 248 111 231 86 53 263 266 278 294 307 303 299 296 294 292 286 259 260 185 193 153 54 12 331 314 310
283 351 15 311 334 328 308 291 294 309 3 326 284 250 248 285 304 286 303 332 266 133 186 219 267 277 290 302 297 292 287 280 273 279 273 292 295 288 338 143 190 184 206 259 319
327 346 345 296 312 298 290 278 208 304 329 311 312 297 337 300 339 319 332 286 291 179 273 38 278 283 295 295 298 302 303 298 268 268 272 278 277 287 295 152 213 214 219 199 236
351 319 274 303 298 291 331 359 333 337 284 251 329 323 302 349 326 318 316 307 297 288 271 225 265 297 287 286 279 286 275 270 310 282 286 270 278 277 280 289 219 202 229 270 263